Flag for U.S.A. Weather past 2 weeks in Springfield, Illinois, U.S.A.

Now
48 °F

Clear.


Feels Like: 45 °F
Forecast: 40 / 65 °F
Wind: 7 mph from East

Location: Capital Airport

Current Time: Apr 28, 2015 at 12:55:00 AM

Latest Report: Apr 27, 2015 at 11:52 PM


Visibility: 10 mi

Pressure: 30.13 "Hg

Humidity: 68%

Dew point: 38 °F

Location of SpringfieldLocation

Historic Weather in Springfield — Graph

°F

Springfield temperature yesterday

Maximum temperature yesterday: 65 °F (at 2:52 PM)
Minimum temperature yesterday: 36 °F (at 3:52 AM)
Average temperature yesterday: 52 °F

Past Weeks' High & Low Weather Summary

 TemperatureHumidityPressure
High81 °F (Apr 18, 1:52 PM)97% (Apr 19, 5:52 PM)30.28 "Hg (Apr 19, 5:52 PM)
Low32 °F (Apr 23, 5:52 AM)14% (Apr 23, 3:52 PM)29.40 "Hg (Apr 20, 12:52 AM)
Average56 °F58%29.93 "Hg
* Reported Apr 12 10:52 PM — Apr 27 10:52 PM, Springfield, Weather by CustomWeather, © 2015

Note: Actual official high and low records may vary slightly from our data, if they occured in-between our weather recording intervals... More about our weather records

Advertising

Springfield weather history for previous 24 hours

 ConditionsComfort  
Time TempWeatherWind HumidityBarometerVisibility
10:52 PM
Mon, Apr 27
48 °FClear.7 mph71%30.11 "Hg10 mi
9:52 PM51 °FClear.No wind63%30.10 "Hg10 mi
8:52 PM53 °FClear.3 mph56%30.09 "Hg10 mi
7:52 PM58 °FSunny.9 mph44%30.07 "Hg10 mi
6:52 PM62 °FSunny.14 mph39%30.06 "Hg10 mi
5:52 PM65 °FSunny.14 mph36%30.07 "Hg10 mi
4:52 PM65 °FSunny.13 mph36%30.06 "Hg10 mi
3:52 PM65 °FSunny.16 mph36%30.07 "Hg10 mi
2:52 PM65 °FSunny.14 mph39%30.09 "Hg10 mi
1:52 PM63 °FSunny.9 mph40%30.11 "Hg10 mi
12:52 PM61 °FSunny.14 mph41%30.13 "Hg10 mi
11:52 AM61 °FSunny.8 mph46%30.15 "Hg10 mi
10:52 AM59 °FSunny.10 mph49%30.14 "Hg10 mi
9:52 AM55 °FSunny.14 mph51%30.13 "Hg10 mi
8:52 AM50 °FSunny.12 mph57%30.11 "Hg10 mi
7:52 AM47 °FSunny.10 mph61%30.12 "Hg10 mi
6:52 AM39 °FClear.8 mph79%30.11 "Hg10 mi
5:52 AM36 °FClear.5 mph85%30.09 "Hg10 mi
4:52 AM36 °FClear.No wind85%30.07 "Hg10 mi
3:52 AM36 °FClear.No wind85%30.07 "Hg10 mi
2:52 AM37 °FClear.5 mph89%30.03 "Hg10 mi
1:52 AM39 °FClear.No wind79%30.06 "Hg10 mi
12:52 AM40 °FClear.3 mph77%30.06 "Hg10 mi
Weather by CustomWeather, © 2015

See weather overviewHow to use our weather pages